Wind_Speed
20 22 21 19 22 21 20 20 18 15 14 14 16 15 14 14 15 16 17 17 16 14 13 13 11 9 8 8 8 5 5 4
22 23 24 25 22 23 25 24 23 21 18 16 15 17 18 15 13 15 17 17 16 16 15 13 11 9 8 8 8 7 7 5
25 25 26 26 25 25 25 25 26 25 23 21 20 18 18 19 18 16 16 18 18 18 17 15 13 11 10 8 8 7 7 6
27 29 28 27 23 23 23 24 24 26 26 26 25 24 23 22 21 21 19 19 20 19 18 18 16 14 13 10 9 8 8 7
26 23 21 21 23 24 23 23 22 21 25 30 30 29 26 27 26 25 24 23 22 22 21 20 19 19 17 14 12 10 8 8
21 22 23 23 23 21 22 23 25 25 26 27 28 30 31 31 33 31 28 27 26 25 25 24 23 23 22 19 17 14 12 11
22 23 25 26 28 30 29 27 25 26 27 27 30 33 31 33 36 36 37 33 31 30 29 27 28 27 26 25 22 20 18 15
23 23 24 25 29 31 30 32 35 34 33 33 34 33 33 33 34 35 39 40 39 37 33 32 32 33 32 30 28 26 24 21
27 26 26 26 27 24 20 20 22 25 28 32 38 41 40 37 36 36 35 40 41 43 40 37 37 37 36 35 34 32 29 27
29 29 28 28 26 25 27 29 31 31 35 36 36 39 41 44 43 40 39 40 43 48 42 42 43 42 39 39 39 38 35 32
30 31 32 33 33 31 32 35 37 39 40 40 41 42 44 45 45 46 46 42 44 45 50 46 44 47 46 43 42 41 40 38
32 33 33 35 36 39 40 42 43 44 45 48 50 48 46 45 48 48 48 48 48 47 48 50 55 55 49 48 48 47 44 44
35 36 38 41 44 46 46 47 47 50 52 54 54 53 52 46 45 48 49 51 50 51 51 53 49 58 60 56 59 57 52 50
38 41 45 47 49 51 53 54 55 57 57 56 55 51 46 44 43 47 49 50 51 54 54 56 58 56 55 58 61 67 59 53
38 41 44 46 46 47 49 51 51 50 47 47 44 45 44 44 45 44 46 51 50 52 56 59 61 60 60 54 46 60 64 62
31 33 36 39 44 46 49 50 50 48 47 45 43 41 43 45 47 49 50 48 50 51 53 57 63 65 64 62 66 67 59 54
32 35 37 39 42 44 45 46 45 47 48 49 48 47 45 47 48 48 48 48 50 52 54 54 59 66 68 68 66 66 66 69
34 37 40 41 40 41 43 45 46 48 48 47 46 47 48 48 47 49 49 52 52 53 54 57 57 61 66 70 70 71 67 65
33 35 38 39 40 42 43 45 44 43 44 45 46 46 47 49 53 51 50 48 50 52 53 54 59 59 61 66 70 72 68 55
35 38 39 40 41 41 40 39 39 40 40 42 43 45 48 52 56 52 45 43 43 46 50 50 52 58 59 59 65 70 69 64
Wind_Direction
303 304 298 278 267 261 255 252 254 262 277 291 296 299 302 306 309 311 313 310 304 299 299 304 310 320 327 331 341 341 309 306
308 308 306 301 289 278 268 259 254 254 256 263 276 289 291 285 287 294 297 299 296 290 288 291 295 304 315 324 337 344 335 319
314 312 310 308 297 290 284 274 266 258 255 256 258 263 271 280 278 274 280 286 288 286 285 284 286 289 296 305 320 331 332 325
308 307 305 299 294 290 289 288 283 272 264 259 257 257 258 260 266 270 271 275 279 281 281 278 280 278 281 286 292 304 314 312
306 308 307 302 298 295 291 288 287 282 278 273 267 263 260 262 259 260 264 266 269 270 271 269 267 268 270 270 272 278 286 297
318 319 320 318 315 311 302 297 295 287 275 276 277 272 269 264 266 263 257 257 260 263 265 265 262 259 263 265 264 264 270 277
316 318 318 317 315 312 308 302 297 295 294 288 281 278 280 282 271 267 266 259 257 256 258 261 262 259 258 259 259 259 259 264
312 313 314 314 314 310 307 303 302 300 297 294 291 286 283 279 278 277 272 266 263 255 252 253 255 256 253 253 256 256 259 257
305 305 304 309 319 317 323 331 332 326 317 307 297 290 285 280 278 274 272 267 268 264 260 257 256 257 257 255 254 253 254 258
298 299 301 305 309 310 310 310 319 324 324 319 312 301 294 286 280 273 273 272 261 264 262 258 255 256 256 258 258 256 254 255
288 291 295 298 301 302 306 307 307 313 316 317 314 313 302 291 284 277 271 269 269 263 260 258 257 256 256 255 256 259 258 255
290 292 294 297 300 303 308 310 310 310 314 314 315 313 312 296 288 281 276 269 263 264 265 258 254 254 257 252 251 252 253 251
294 295 296 299 300 301 303 307 312 315 317 317 317 316 313 302 287 279 277 273 268 262 260 263 257 252 249 253 251 246 247 245
287 293 297 301 303 306 310 313 314 315 316 316 315 314 308 300 291 284 280 273 269 265 259 258 256 260 245 250 251 252 248 247
291 294 299 305 312 315 316 315 314 314 313 312 312 309 306 303 299 293 282 280 275 266 262 259 256 253 257 249 253 246 241 245
305 308 313 316 316 316 316 316 316 315 314 314 311 308 305 304 302 298 293 288 279 275 265 262 259 255 251 252 253 257 260 259
321 323 322 321 318 316 315 315 314 314 315 314 311 308 306 305 302 299 293 288 283 278 273 265 261 260 256 250 254 254 256 260
324 325 323 323 321 320 318 316 316 315 314 313 310 307 307 308 305 301 295 292 287 281 276 270 265 259 259 255 252 253 256 257
327 327 328 327 327 326 323 321 320 319 316 315 313 312 312 313 313 308 301 294 288 284 279 273 269 264 258 257 254 251 255 260
330 331 331 331 330 329 327 324 322 322 320 319 318 317 317 319 319 313 305 299 291 284 282 279 272 265 261 257 255 250 249 249
Height
3163 3162 3161 3160 3159 3157 3156 3155 3155 3155 3156 3156 3156 3155 3155 3155 3155 3155 3154 3153 3151 3149 3149 3148 3148 3147 3146 3145 3143 3142 3140 3139
3161 3160 3159 3159 3159 3157 3155 3153 3152 3152 3151 3151 3151 3152 3152 3152 3151 3151 3151 3150 3149 3148 3147 3147 3147 3146 3145 3144 3143 3141 3140 3139
3158 3157 3156 3156 3155 3154 3153 3152 3151 3149 3148 3147 3147 3147 3147 3149 3148 3147 3147 3147 3147 3146 3145 3145 3145 3145 3144 3144 3142 3141 3140 3139
3155 3154 3152 3151 3151 3150 3149 3149 3148 3147 3146 3144 3143 3142 3142 3142 3143 3143 3143 3143 3143 3143 3142 3143 3143 3143 3142 3142 3141 3140 3139 3139
3150 3149 3148 3147 3146 3145 3146 3145 3144 3144 3142 3141 3139 3138 3138 3138 3137 3137 3137 3138 3138 3138 3138 3138 3139 3139 3139 3139 3139 3138 3138 3137
3147 3145 3144 3142 3142 3141 3140 3139 3139 3138 3137 3135 3134 3134 3133 3133 3133 3133 3131 3131 3132 3132 3132 3133 3134 3134 3135 3135 3136 3136 3135 3134
3145 3143 3141 3139 3138 3136 3135 3134 3134 3132 3132 3131 3130 3129 3128 3127 3127 3127 3127 3126 3125 3125 3126 3126 3128 3128 3129 3130 3131 3131 3131 3131
3143 3142 3140 3138 3135 3132 3130 3129 3127 3126 3125 3124 3123 3122 3121 3120 3119 3120 3121 3120 3119 3117 3118 3118 3119 3121 3121 3122 3125 3125 3127 3127
3140 3139 3137 3134 3132 3130 3127 3125 3123 3121 3119 3118 3116 3114 3113 3112 3112 3111 3111 3111 3111 3110 3111 3111 3110 3112 3113 3115 3116 3118 3119 3121
3134 3133 3132 3130 3128 3126 3124 3122 3119 3117 3114 3112 3109 3106 3104 3103 3103 3103 3102 3102 3101 3102 3103 3103 3102 3103 3105 3107 3108 3110 3111 3113
3129 3128 3127 3126 3124 3122 3120 3117 3114 3112 3109 3107 3104 3099 3095 3092 3091 3092 3092 3092 3092 3092 3093 3092 3093 3095 3096 3097 3099 3101 3103 3103
3122 3121 3120 3118 3117 3115 3112 3110 3107 3104 3101 3098 3095 3093 3088 3083 3080 3078 3078 3079 3080 3081 3080 3081 3080 3083 3084 3085 3086 3088 3089 3091
3115 3114 3113 3111 3109 3107 3106 3103 3099 3094 3089 3086 3083 3079 3076 3074 3069 3066 3064 3065 3066 3067 3068 3068 3068 3068 3071 3071 3073 3075 3074 3075
3110 3108 3105 3102 3099 3095 3092 3088 3086 3083 3080 3076 3071 3067 3063 3060 3058 3054 3051 3050 3050 3052 3053 3053 3054 3052 3052 3056 3056 3060 3062 3067
3106 3102 3098 3094 3091 3088 3085 3082 3079 3076 3073 3069 3064 3058 3054 3049 3045 3042 3040 3036 3035 3036 3037 3038 3037 3041 3045 3043 3039 3031 3041 3055
3100 3097 3094 3090 3085 3081 3076 3071 3066 3062 3057 3054 3051 3048 3044 3039 3034 3030 3026 3024 3022 3020 3021 3021 3022 3022 3030 3031 3032 3035 3035 3035
3093 3089 3086 3082 3078 3073 3068 3063 3057 3051 3046 3042 3037 3034 3031 3027 3022 3017 3013 3010 3007 3005 3005 3006 3006 3004 3008 3015 3016 3021 3024 3028
3089 3084 3079 3074 3069 3064 3058 3053 3048 3043 3037 3032 3028 3024 3018 3014 3010 3005 3000 2995 2992 2989 2989 2988 2989 2989 2990 2992 2997 3001 3007 3010
3084 3079 3073 3066 3061 3055 3049 3044 3038 3034 3029 3023 3017 3012 3007 3000 2995 2991 2986 2981 2977 2973 2970 2971 2971 2971 2973 2974 2977 2981 2989 2996
3076 3070 3065 3059 3054 3050 3044 3038 3033 3027 3022 3015 3009 3001 2995 2989 2981 2975 2970 2967 2964 2960 2956 2954 2953 2953 2954 2958 2959 2964 2972 2982